Location: Eastlake (historical)
(39.0077°N, 122.6678°W)
Time: 09:05:08
(UTC+00:00)

USA 276 - Pass Details

Date: 25 November 2020
Orbit: 380 x 394 km, 50.0° (Epoch: 07 January)

Event Time Altitude Azimuth Distance (km) Brightness Sun altitude
Exits shadow 13:32:53 16° 207° (SSW) 1,138 4.3 -17.7°
Drops below altitude 10° 13:34:13 10° 184° (S) 1,428 5.0 -17.4°
Sets 13:36:44 0° 163° (SSE) 2,276 6.4 -16.9°
